Location: Peyton Hall Observatory
(40.3466°N, 74.6516°W)
Time: 01:36:08
(UTC-04:00)

ISS - All Passes

Search period start: 02 July 2016 00:00
Search period end: 12 July 2016 00:00
Orbit: 402 x 404 km, 51.6° (Epoch: 02 July)

Date Brightness Start Highest point End Pass type
(mag) Time Alt. Az. Time Alt. Az. Time Alt. Az.
02 Jul - 06:41:12 10° S 06:43:33 19° SE 06:45:55 10° E daylight
02 Jul - 08:16:36 10° WSW 08:19:46 46° NNW 08:22:56 10° NE daylight
02 Jul - 09:54:58 10° NW 09:56:50 14° NNW 09:58:41 10° NNE daylight
02 Jul - 11:32:53 10° NNW 11:34:22 12° N 11:35:50 10° NE daylight
02 Jul - 13:08:40 10° NW 13:11:37 30° NNE 13:14:33 10° E daylight
02 Jul - 14:45:04 10° WNW 14:48:03 33° SW 14:51:02 10° SSE daylight
03 Jul - 07:23:41 10° SW 07:26:57 88° NW 07:30:13 10° NE daylight
03 Jul - 09:01:26 10° WNW 09:03:46 18° NNW 09:06:08 10° NNE daylight
03 Jul - 10:40:02 10° NNW 10:41:14 12° N 10:42:27 10° NNE daylight
03 Jul - 12:16:06 10° NNW 12:18:39 20° NNE 12:21:12 10° ENE daylight
03 Jul - 13:52:07 10° WNW 13:55:22 69° SW 13:58:36 10° SE daylight
04 Jul - 06:31:05 10° SSW 06:34:13 45° SE 06:37:21 10° ENE daylight
04 Jul - 08:08:00 10° W 08:10:47 25° NNW 08:13:34 10° NNE daylight
04 Jul - 09:46:47 10° NNW 09:48:06 12° N 09:49:25 10° NNE daylight
04 Jul - 11:23:32 10° NNW 11:25:36 16° NNE 11:27:41 10° NE daylight
04 Jul - 12:59:20 10° NW 13:02:35 60° NE 13:05:49 10° ESE daylight
04 Jul - 14:36:51 10° W 14:38:40 14° SW 14:40:30 10° SSW daylight
05 Jul - 05:38:56 10° S 05:41:33 23° SE 05:44:11 10° E daylight
05 Jul - 07:14:45 10° WSW 07:17:50 39° NNW 07:20:57 10° NE daylight
05 Jul - 08:53:15 10° NW 08:54:58 13° N 08:56:41 10° NNE daylight
05 Jul - 10:30:55 10° NNW 10:32:30 13° N 10:34:06 10° NE daylight
05 Jul - 12:06:40 10° NW 12:09:42 34° NNE 12:12:43 10° E daylight
05 Jul - 13:43:14 10° WNW 13:46:04 27° SW 13:48:53 10° SSE daylight
06 Jul - 04:47:44 10° SSE 04:48:57 12° SE 04:50:10 10° ESE visible
06 Jul - 06:21:43 10° WSW 06:24:58 72° NW 06:28:14 10° NE daylight
06 Jul - 07:59:40 10° WNW 08:01:52 17° NNW 08:04:05 10° NNE daylight
06 Jul - 09:38:06 10° NNW 09:39:21 12° N 09:40:36 10° NNE daylight
06 Jul - 11:14:03 10° NNW 11:16:43 23° NNE 11:19:24 10° ENE daylight
06 Jul - 12:50:09 10° WNW 12:53:21 55° SW 12:56:33 10° SE daylight
07 Jul - 05:28:59 10° SW 05:32:10 56° SE 05:35:23 10° ENE daylight
07 Jul - 07:06:09 10° WNW 07:08:49 22° NNW 07:11:28 10° NNE daylight
07 Jul - 08:44:56 10° NNW 08:46:10 12° N 08:47:25 10° NNE daylight
07 Jul - 10:21:26 10° NNW 10:23:39 17° NNE 10:25:52 10° ENE daylight
07 Jul - 11:57:17 10° NW 12:00:33 73° NE 12:03:48 10° ESE daylight
07 Jul - 13:35:22 10° WSW 13:36:34 12° SW 13:37:46 10° SSW daylight
08 Jul - 04:36:37 10° SSW 04:39:27 27° SE 04:42:16 10° ENE visible
08 Jul - 06:12:47 10° W 06:15:48 34° NNW 06:18:50 10° NE daylight
08 Jul - 07:51:25 10° NW 07:53:00 13° N 07:54:36 10° NNE daylight
08 Jul - 09:28:48 10° NNW 09:30:32 13° N 09:32:15 10° NE daylight
08 Jul - 11:04:33 10° NW 11:07:39 39° NNE 11:10:45 10° ESE daylight
08 Jul - 12:41:19 10° W 12:43:57 22° SW 12:46:33 10° S daylight
09 Jul - 03:44:57 10° SSE 03:46:47 14° SE 03:48:37 10° E visible
09 Jul - 05:19:39 10° WSW 05:22:52 60° NW 05:26:06 10° NE daylight
09 Jul - 06:57:47 10° NW 06:59:50 15° NNW 07:01:54 10° NNE daylight
09 Jul - 08:36:02 10° NNW 08:37:21 12° N 08:38:40 10° NNE daylight
09 Jul - 10:11:52 10° NNW 10:14:40 25° NNE 10:17:27 10° E daylight
09 Jul - 11:48:05 10° WNW 11:51:13 44° SW 11:54:21 10° SSE daylight
10 Jul - 04:26:47 10° SW 04:30:01 69° SE 04:33:16 10° ENE visible
10 Jul - 06:04:11 10° WNW 06:06:44 20° NNW 06:09:16 10° NNE daylight
10 Jul - 07:42:56 10° NNW 07:44:08 12° N 07:45:20 10° NNE daylight
10 Jul - 09:19:14 10° NNW 09:21:35 18° NNE 09:23:56 10° ENE daylight
10 Jul - 10:55:08 10° NW 10:58:24 88° NNE 11:01:40 10° SE daylight
11 Jul - 03:34:15 10° SSW 03:37:13 33° SE 03:40:12 10° ENE visible
11 Jul - 05:10:45 10° W 05:13:40 30° NNW 05:16:36 10° NE daylight
11 Jul - 06:49:27 10° NW 06:50:54 12° N 06:52:23 10° NNE daylight
11 Jul - 08:26:34 10° NNW 08:28:26 14° NNE 08:30:17 10° NE daylight
11 Jul - 10:02:19 10° NW 10:05:29 46° NNE 10:08:39 10° ESE daylight
11 Jul - 11:39:19 10° W 11:41:42 19° SW 11:44:03 10° S daylight
